When you browse on this site, cookies collect data to enhance your experience and personalize the content and advertising you see.
Visit our Privacy Policy to learn more. By continuing to use the site, you agree to this use of cookies and data.
  • In United Kingdom
  • List of Countries
  • For 7 days
  • Water Temperature
  • Satellite Maps
  • Weather Map
  • Weather Widgets
  • user-avatar
    Login

    Hourly Weather Santa Rita

    Today, 22 April, Monday

    Time Temperature Precipitation Wind Pressure Humidity
    00:00 +27°C° 0.1 mm 1 mps 748 mmHg 92%
    01:00 +27°C° 0 mm 1 mps 748 mmHg 93%
    02:00 +27°C° 0.2 mm 1 mps 748 mmHg 93%
    03:00 +26°C° 0.2 mm 1 mps 748 mmHg 94%
    04:00 +26°C° 0.2 mm 1 mps 748 mmHg 94%
    05:00 +26°C° 1.2 mm 1 mps 748 mmHg 93%
    06:00 +27°C° 1.2 mm 1 mps 748 mmHg 92%
    07:00 +27°C° 0 mm 1 mps 749 mmHg 90%
    08:00 +28°C° 2.2 mm 1 mps 749 mmHg 88%
    09:00 +28°C° 2.2 mm 2 mps 749 mmHg 86%
    10:00 +29°C° 2.2 mm 2 mps 749 mmHg 83%
    11:00 +29°C° 0.9 mm 2 mps 749 mmHg 83%
    12:00 +29°C° 0.9 mm 2 mps 748 mmHg 82%
    13:00 +29°C° 0.9 mm 2 mps 747 mmHg 81%
    14:00 +30°C° 0 mm 2 mps 747 mmHg 80%
    15:00 +30°C° 0 mm 2 mps 747 mmHg 78%
    16:00 +30°C° 0 mm 2 mps 746 mmHg 76%
    17:00 +29°C° 0 mm 1 mps 747 mmHg 80%
    18:00 +28°C° 0 mm 1 mps 747 mmHg 83%
    19:00 +27°C° 0 mm 1 mps 747 mmHg 87%
    20:00 +27°C° 0 mm 1 mps 748 mmHg 87%
    21:00 +27°C° 0 mm 1 mps 748 mmHg 87%
    22:00 +27°C° 0 mm 1 mps 749 mmHg 87%
    23:00 +25°C° 0 mm 0 mps 748 mmHg 87%

    Tomorrow, 23 April, Tuesday

    Time Temperature Precipitation Wind Pressure Humidity
    00:00 +25°C° 0 mm 0 mps 748 mmHg 87%
    01:00 +25°C° 0 mm 0 mps 748 mmHg 87%
    02:00 +25°C° 0.4 mm 0 mps 748 mmHg 88%
    03:00 +24°C° 0.4 mm 0 mps 747 mmHg 89%
    04:00 +24°C° 0.4 mm 0 mps 747 mmHg 91%
    05:00 +24°C° 0.4 mm 0 mps 748 mmHg 90%
    06:00 +25°C° 0.4 mm 0 mps 748 mmHg 90%
    07:00 +25°C° 0.4 mm 0 mps 749 mmHg 89%
    08:00 +26°C° 0.3 mm 0 mps 749 mmHg 86%
    09:00 +28°C° 0.3 mm 1 mps 749 mmHg 83%
    10:00 +29°C° 0.3 mm 1 mps 750 mmHg 80%
    11:00 +30°C° 0.6 mm 1 mps 749 mmHg 78%
    12:00 +30°C° 0.6 mm 2 mps 748 mmHg 75%
    13:00 +31°C° 0.6 mm 2 mps 748 mmHg 72%
    14:00 +31°C° 0 mm 2 mps 747 mmHg 73%
    15:00 +31°C° 0 mm 1 mps 747 mmHg 74%
    16:00 +31°C° 0 mm 1 mps 746 mmHg 75%
    17:00 +30°C° 0 mm 1 mps 746 mmHg 78%
    18:00 +27°C° 0 mm 0 mps 747 mmHg 81%
    19:00 +26°C° 0 mm 0 mps 747 mmHg 85%
    20:00 +26°C° 0 mm 0 mps 748 mmHg 86%
    21:00 +26°C° 0 mm 0 mps 748 mmHg 86%
    22:00 +26°C° 0 mm 0 mps 749 mmHg 87%
    23:00 +25°C° 2 mm 0 mps 749 mmHg 90%

    Day after tomorrow, 24 April, Wednesday

    Time Temperature Precipitation Wind Pressure Humidity
    00:00 +25°C° 2 mm 0 mps 748 mmHg 92%
    01:00 +26°C° 2 mm 1 mps 748 mmHg 94%
    02:00 +26°C° 1 mm 1 mps 748 mmHg 94%
    03:00 +26°C° 1 mm 1 mps 748 mmHg 94%
    04:00 +26°C° 1 mm 1 mps 748 mmHg 94%
    05:00 +27°C° 1.5 mm 1 mps 748 mmHg 93%
    06:00 +27°C° 1.5 mm 1 mps 749 mmHg 92%
    07:00 +27°C° 1.5 mm 1 mps 750 mmHg 91%
    08:00 +28°C° 1.4 mm 1 mps 750 mmHg 87%
    09:00 +29°C° 1.4 mm 1 mps 750 mmHg 82%
    10:00 +30°C° 1.4 mm 1 mps 751 mmHg 78%
    11:00 +31°C° 2 mm 2 mps 750 mmHg 74%
    12:00 +31°C° 2 mm 2 mps 749 mmHg 71%
    13:00 +32°C° 2 mm 2 mps 748 mmHg 67%
    14:00 +32°C° 0.4 mm 2 mps 748 mmHg 70%
    15:00 +31°C° 0.4 mm 2 mps 747 mmHg 73%
    16:00 +30°C° 0.4 mm 2 mps 746 mmHg 76%
    17:00 +30°C° 0 mm 2 mps 747 mmHg 78%
    18:00 +29°C° 0 mm 1 mps 747 mmHg 80%
    19:00 +28°C° 0 mm 1 mps 748 mmHg 82%
    20:00 +28°C° 0 mm 1 mps 748 mmHg 81%
    21:00 +28°C° 0 mm 1 mps 749 mmHg 80%
    22:00 +28°C° 0 mm 1 mps 749 mmHg 79%
    23:00 +27°C° 0.2 mm 1 mps 749 mmHg 80%

    25 April, Thursday

    Time Temperature Precipitation Wind Pressure Humidity
    00:00 +27°C° 0.2 mm 1 mps 749 mmHg 81%
    01:00 +27°C° 0.2 mm 1 mps 748 mmHg 83%
    02:00 +26°C° 0.1 mm 1 mps 748 mmHg 84%
    03:00 +26°C° 0.1 mm 1 mps 748 mmHg 85%
    04:00 +26°C° 0.1 mm 1 mps 748 mmHg 86%
    05:00 +26°C° 0.1 mm 1 mps 749 mmHg 86%
    06:00 +26°C° 0.1 mm 2 mps 749 mmHg 86%
    07:00 +27°C° 0.1 mm 2 mps 750 mmHg 87%
    08:00 +28°C° 1.2 mm 2 mps 751 mmHg 85%
    09:00 +29°C° 1.2 mm 3 mps 751 mmHg 82%
    10:00 +30°C° 1.2 mm 3 mps 751 mmHg 80%
    11:00 +29°C° 1.2 mm 3 mps 751 mmHg 83%
    12:00 +29°C° 1.2 mm 3 mps 750 mmHg 85%
    13:00 +28°C° 1.2 mm 3 mps 749 mmHg 88%
    14:00 +28°C° 0.3 mm 3 mps 749 mmHg 89%
    15:00 +27°C° 0.3 mm 2 mps 748 mmHg 90%
    16:00 +27°C° 0.3 mm 2 mps 748 mmHg 91%
    17:00 +27°C° 0 mm 2 mps 749 mmHg 93%
    18:00 +26°C° 0 mm 1 mps 749 mmHg 94%
    19:00 +26°C° 0 mm 1 mps 750 mmHg 95%
    20:00 +26°C° 0 mm 1 mps 750 mmHg 95%
    21:00 +26°C° 0 mm 1 mps 750 mmHg 95%
    22:00 +26°C° 0 mm 1 mps 751 mmHg 94%
    23:00 +25°C° 0 mm 1 mps 750 mmHg 95%

    26 April, Friday

    Time Temperature Precipitation Wind Pressure Humidity
    00:00 +25°C° 0 mm 1 mps 750 mmHg 95%
    01:00 +25°C° 0 mm 1 mps 749 mmHg 95%
    02:00 +25°C° 0 mm 1 mps 749 mmHg 95%
    03:00 +25°C° 0 mm 1 mps 749 mmHg 95%
    04:00 +25°C° 0 mm 1 mps 749 mmHg 96%
    05:00 +25°C° 0.1 mm 1 mps 750 mmHg 95%
    06:00 +25°C° 0.1 mm 1 mps 750 mmHg 94%
    07:00 +26°C° 0.1 mm 1 mps 751 mmHg 93%
    08:00 +27°C° 0.1 mm 1 mps 751 mmHg 87%
    09:00 +28°C° 0.1 mm 1 mps 751 mmHg 81%
    10:00 +30°C° 0.1 mm 1 mps 750 mmHg 75%
    11:00 +31°C° 0 mm 1 mps 750 mmHg 69%
    12:00 +32°C° 0 mm 2 mps 749 mmHg 63%
    13:00 +34°C° 0 mm 2 mps 748 mmHg 57%
    14:00 +34°C° 0 mm 2 mps 747 mmHg 58%
    15:00 +34°C° 0 mm 2 mps 747 mmHg 59%
    16:00 +33°C° 0 mm 1 mps 746 mmHg 61%
    17:00 +32°C° 0.1 mm 1 mps 747 mmHg 67%
    18:00 +30°C° 0.1 mm 1 mps 748 mmHg 73%
    19:00 +27°C° 0.1 mm 0 mps 749 mmHg 79%
    20:00 +28°C° 2.3 mm 1 mps 749 mmHg 82%
    21:00 +28°C° 2.3 mm 1 mps 749 mmHg 86%
    22:00 +27°C° 2.3 mm 2 mps 750 mmHg 89%
    23:00 +27°C° 1.4 mm 2 mps 749 mmHg 90%

    27 April, Saturday

    Time Temperature Precipitation Wind Pressure Humidity
    00:00 +27°C° 1.4 mm 2 mps 749 mmHg 91%
    01:00 +27°C° 1.4 mm 2 mps 748 mmHg 92%
    02:00 +27°C° 1.6 mm 1 mps 748 mmHg 92%
    03:00 +27°C° 1.6 mm 1 mps 748 mmHg 93%
    04:00 +27°C° 1.6 mm 1 mps 748 mmHg 93%
    05:00 +26°C° 2.1 mm 1 mps 749 mmHg 93%
    06:00 +26°C° 2.1 mm 2 mps 749 mmHg 93%
    07:00 +26°C° 2.1 mm 2 mps 750 mmHg 94%
    08:00 +27°C° 1.9 mm 2 mps 750 mmHg 92%
    09:00 +27°C° 1.9 mm 3 mps 750 mmHg 91%
    10:00 +28°C° 1.9 mm 3 mps 750 mmHg 89%
    11:00 +28°C° 1.1 mm 3 mps 750 mmHg 88%
    12:00 +28°C° 1.1 mm 3 mps 749 mmHg 86%
    13:00 +29°C° 1.1 mm 3 mps 748 mmHg 85%
    14:00 +29°C° 0 mm 3 mps 748 mmHg 83%
    15:00 +29°C° 0 mm 3 mps 747 mmHg 81%
    16:00 +29°C° 0 mm 3 mps 747 mmHg 79%
    17:00 +29°C° 0 mm 2 mps 748 mmHg 83%
    18:00 +28°C° 0 mm 2 mps 748 mmHg 87%
    19:00 +27°C° 0 mm 1 mps 749 mmHg 90%
    20:00 +27°C° 0 mm 1 mps 749 mmHg 92%
    21:00 +26°C° 0 mm 1 mps 749 mmHg 93%
    22:00 +24°C° 0 mm 0 mps 750 mmHg 94%
    23:00 +26°C° 0 mm 1 mps 749 mmHg 95%
    Show more